Date String (YYYY-MM-DD hh:mm:ss) UTC,Instrument flags,Ambient pressure (hPa),Sample flow (lpm),Bypass flow (lpm),Sample temperature (°C),Ambient temperature (°C),ASC tube jacket temperature (°C),LED temperature (°C),Box temperature (°C),Sample RH (%),Span deviation,Mass concentration (μg/m³),Mass concentration (μg/m³),Mass concentration (μg/m³)
DateTimeUTC,F1_M11,P_M11,Q1_M11,Q2_M11,T1_M11,T2_M11,T3_M11,T4_M11,T5_M11,U1_M11,ZSPAN_M11,X0_M11,X2_M11,X1_M11
2022-02-26 16:00:00,,0831.0,5.01,0.00,22.8,22.0,00.0,31.7,24.6,07.0,-000.3,0014.12,0008.59,0007.87
2022-02-26 16:01:00,,0831.0,4.99,0.00,22.8,22.0,00.0,31.7,24.6,07.1,-000.4,0014.21,0008.64,0007.90
2022-02-26 16:02:00,,0831.1,5.00,0.00,22.8,22.0,00.0,31.7,24.5,07.1,-000.5,0014.49,0008.71,0007.95
2022-02-26 16:03:00,,0831.2,5.00,0.00,22.8,22.0,00.0,31.7,24.5,07.1,-000.8,0014.56,0008.77,0008.01
2022-02-26 16:04:00,,0831.2,5.01,0.00,22.8,22.0,00.0,31.7,24.5,07.1,-000.9,0014.38,0008.84,0008.06
2022-02-26 16:05:00,,0831.2,5.00,0.00,22.7,21.9,00.0,31.7,24.5,07.2,-001.2,0014.00,0008.94,0008.13
2022-02-26 16:06:00,,0831.2,5.00,0.00,22.7,21.9,00.0,31.7,24.5,07.3,-001.2,0014.14,0009.05,0008.21
2022-02-26 16:07:00,,0831.2,5.00,0.00,22.7,21.9,00.0,31.7,24.4,07.3,-000.9,0014.52,0009.17,0008.29
2022-02-26 16:08:00,,0831.2,4.99,0.00,22.7,21.9,00.0,31.7,24.3,07.4,-000.7,0014.95,0009.24,0008.39
2022-02-26 16:09:00,,0831.1,4.99,0.00,22.6,21.8,00.0,31.7,24.3,07.3,-000.2,0014.83,0009.28,0008.47
2022-02-26 16:10:00,,0831.1,5.00,0.00,22.6,21.8,00.0,31.6,24.3,07.3,0000.3,0014.50,0009.39,0008.55
2022-02-26 16:11:00,,0831.1,5.01,0.00,22.6,21.7,00.0,31.6,24.3,07.5,0000.6,0014.71,0009.48,0008.61
2022-02-26 16:12:00,,0831.1,5.00,0.00,22.6,21.6,00.0,31.6,24.3,07.4,0000.5,0014.87,0009.54,0008.66
2022-02-26 16:13:00,,0831.2,5.00,0.00,22.5,21.6,00.0,31.6,24.2,07.4,0000.8,0014.89,0009.58,0008.69
2022-02-26 16:14:00,,0831.1,5.00,0.00,22.5,21.6,00.0,31.6,24.3,07.4,0001.1,0014.91,0009.57,0008.69
2022-02-26 16:15:00,,0831.2,5.00,0.00,22.5,21.6,00.0,31.6,24.2,07.4,0001.4,0014.90,0009.55,0008.70
2022-02-26 16:16:00,,0831.1,4.99,0.00,22.5,21.5,00.0,31.5,24.2,07.4,0001.4,0015.01,0009.51,0008.68
2022-02-26 16:17:00,,0831.1,5.00,0.00,22.5,21.6,00.0,31.5,24.2,07.3,0001.0,0014.91,0009.48,0008.66
2022-02-26 16:18:00,,0831.2,4.99,0.00,22.6,22.6,00.0,31.5,24.4,07.4,0000.6,0014.51,0009.41,0008.63
2022-02-26 16:19:00,,0831.2,5.01,0.00,22.7,23.7,00.0,31.6,24.7,07.5,-000.1,0013.98,0009.37,0008.60
2022-02-26 16:20:00,,0831.2,4.99,0.00,22.8,23.7,00.0,31.6,24.9,07.2,-000.2,0014.16,0009.44,0008.61
2022-02-26 16:21:00,,0831.2,5.00,0.00,22.8,23.3,00.0,31.6,24.8,07.2,-000.4,0014.11,0009.42,0008.60
2022-02-26 16:22:00,,0831.2,5.01,0.00,22.9,23.0,00.0,31.6,24.8,07.2,0000.0,0014.14,0009.40,0008.60
2022-02-26 16:23:00,,0831.2,4.99,0.00,22.8,22.8,00.0,31.7,24.7,07.2,-000.1,0014.27,0009.41,0008.58
2022-02-26 16:24:00,,0831.2,5.00,0.00,22.9,22.6,00.0,31.7,24.7,07.4,-000.3,0014.17,0009.41,0008.57
2022-02-26 16:25:00,,0831.2,5.00,0.00,22.8,22.5,00.0,31.7,24.7,07.2,-000.1,0014.43,0009.42,0008.59
2022-02-26 16:26:00,,0831.1,4.99,0.00,22.8,22.4,00.0,31.7,24.7,07.2,-000.3,0015.13,0009.42,0008.60
2022-02-26 16:27:00,,0831.2,5.01,0.00,22.8,22.3,00.0,31.7,24.7,07.3,-000.4,0014.94,0009.40,0008.60
2022-02-26 16:28:00,,0831.1,4.99,0.00,22.8,22.2,00.0,31.7,24.6,07.2,0000.0,0014.93,0009.37,0008.60
2022-02-26 16:29:00,,0831.1,5.00,0.00,22.8,22.1,00.0,31.7,24.5,07.2,0000.4,0014.89,0009.35,0008.61
2022-02-26 16:30:00,,0831.2,5.00,0.00,22.7,21.9,00.0,31.7,24.5,07.2,0000.4,0014.88,0009.37,0008.63
2022-02-26 16:31:00,,0831.2,4.99,0.00,22.7,21.8,00.0,31.7,24.4,07.2,0000.4,0014.78,0009.33,0008.64
2022-02-26 16:32:00,,0831.3,5.02,0.00,22.7,21.7,00.0,31.7,24.4,07.3,0000.5,0014.69,0009.33,0008.67
2022-02-26 16:33:00,,0831.4,5.00,0.00,22.6,21.7,00.0,31.7,24.4,07.4,0000.2,0014.63,0009.37,0008.69
2022-02-26 16:34:00,,0831.4,5.00,0.00,22.6,21.7,00.0,31.6,24.3,07.4,0000.5,0014.38,0009.36,0008.72
2022-02-26 16:35:00,,0831.4,4.99,0.00,22.6,21.7,00.0,31.6,24.3,07.3,0000.7,0014.41,0009.38,0008.75
2022-02-26 16:36:00,,0831.4,4.99,0.00,22.6,21.7,00.0,31.6,24.3,07.3,0000.6,0014.56,0009.40,0008.78
2022-02-26 16:37:00,,0831.4,5.00,0.00,22.6,21.6,00.0,31.6,24.3,07.3,0000.5,0014.15,0009.48,0008.83
2022-02-26 16:38:00,,0831.4,5.00,0.00,22.6,21.6,00.0,31.6,24.3,07.3,0000.4,0014.30,0009.62,0008.90
2022-02-26 16:39:00,,0831.4,5.00,0.00,22.5,21.6,00.0,31.6,24.2,07.4,-000.0,0014.43,0009.71,0008.95
2022-02-26 16:40:00,,0831.3,5.01,0.00,22.5,21.6,00.0,31.5,24.2,07.4,-000.3,0014.95,0009.77,0008.99
2022-02-26 16:41:00,,0831.4,4.99,0.00,22.4,21.6,00.0,31.5,24.1,07.4,-000.2,0015.47,0009.83,0009.03
2022-02-26 16:42:00,,0831.4,5.00,0.00,22.4,21.6,00.0,31.5,24.1,07.5,-000.1,0015.53,0009.89,0009.08
2022-02-26 16:43:00,,0831.4,5.00,0.00,22.4,21.6,00.0,31.5,24.2,07.6,-000.2,0015.74,0009.93,0009.10
2022-02-26 16:44:00,,0831.4,5.00,0.00,22.5,21.7,00.0,31.5,24.2,07.6,0000.0,0015.82,0009.96,0009.14
2022-02-26 16:45:00,,0831.4,5.00,0.00,22.5,21.7,00.0,31.5,24.3,07.2,-000.1,0016.05,0010.11,0009.25
2022-02-26 16:46:00,,0831.4,5.00,0.00,22.5,21.7,00.0,31.5,24.3,07.4,-000.3,0016.41,0010.25,0009.33
2022-02-26 16:47:00,,0831.4,4.98,0.00,22.5,21.7,00.0,31.5,24.3,07.6,-000.2,0016.19,0010.29,0009.37
2022-02-26 16:48:00,,0831.4,5.00,0.00,22.5,21.7,00.0,31.5,24.3,07.4,0000.1,0015.97,0010.31,0009.39
2022-02-26 16:49:00,,0831.4,5.00,0.00,22.5,21.8,00.0,31.5,24.3,07.1,0000.3,0015.97,0010.35,0009.44
2022-02-26 16:50:00,,0831.4,5.01,0.00,22.5,21.8,00.0,31.5,24.3,07.1,0000.7,0016.43,0010.45,0009.49
2022-02-26 16:51:00,,0831.4,5.00,0.00,22.5,21.9,00.0,31.5,24.3,07.0,0000.9,0016.24,0010.56,0009.55
2022-02-26 16:52:00,,0831.4,5.00,0.00,22.6,21.9,00.0,31.5,24.3,07.1,0001.1,0016.70,0010.63,0009.61
2022-02-26 16:53:00,,0831.5,4.98,0.00,22.6,21.9,00.0,31.5,24.4,07.1,0001.2,0017.04,0010.68,0009.66
2022-02-26 16:54:00,,0831.5,5.00,0.00,22.6,21.9,00.0,31.5,24.4,07.2,0001.1,0017.47,0010.72,0009.68
2022-02-26 16:55:00,,0831.4,5.01,0.00,22.6,22.0,00.0,31.5,24.4,07.2,0000.7,0017.36,0010.76,0009.73
2022-02-26 16:56:00,,0831.4,5.00,0.00,22.6,22.0,00.0,31.5,24.4,07.2,0001.1,0017.35,0010.75,0009.73
2022-02-26 16:57:00,,0831.4,5.00,0.00,22.7,22.0,00.0,31.5,24.5,07.2,0001.2,0017.06,0010.67,0009.70
2022-02-26 16:58:00,,0831.4,5.00,0.00,22.7,22.0,00.0,31.5,24.5,07.2,0001.0,0017.15,0010.70,0009.70
2022-02-26 16:59:00,,0831.4,4.99,0.00,22.7,22.1,00.0,31.5,24.5,07.2,0000.4,0017.61,0010.78,0009.75
